Home   Weather   Einsiedeln   Past weeks

Flag for Switzerland Past Weather in Einsiedeln, Schwyz, Switzerland — Yesterday and Last 2 Weeks

Now
67 °F

Mild.


Feels Like: 67 °F
Forecast: 46 / 63 °F
Wind: 6 mph from Northwest

Location: Altdorf

Current Time: Sep 27, 2016 at 3:49:18 PM

Latest Report: Sep 27, 2016 at 3:00 PM


Visibility: N/A

Pressure: 30.24 "Hg (27.27 "Hg at 887m altitude)

Humidity: 66%

Dew Point: 56 °F

Location of EinsiedelnLocation

Past Weather in Einsiedeln — Graph

°F

Einsiedeln Temperature Yesterday

Maximum temperature yesterday: 69 °F (at 3:00 PM)
Minimum temperature yesterday: 50 °F (at 6:00 AM)
Average temperature yesterday: 59 °F

High & Low Weather Summary for the Past Weeks

 TemperatureHumidityPressure
High80 °F (Sep 12, 4:00 PM)100% (Sep 24, 7:00 AM)30.32 "Hg (Sep 24, 7:00 AM)
Low46 °F (Sep 25, 6:00 AM)30% (Sep 15, 12:00 AM)29.73 "Hg (Sep 15, 5:00 AM)
Average61 °F80%30.06 "Hg
* Reported Sep 12 2:00 PM — Sep 27 2:00 PM, Einsiedeln, Weather by CustomWeather, © 2016

Note: Actual official high and low records may vary slightly from our data, if they occured in-between our weather recording intervals... More about our weather records

Advertising

Einsiedeln Weather History for the Previous 24 Hours

Scroll right to see more
 ConditionsComfort  
Time TempWeatherWind HumidityBarometerVisibility
2:00 PM
Tue, Sep 27
66 °FPartly sunny.5 mph71%30.26 "Hg9 mi
1:00 PM65 °FMild.8 mph73%30.27 "HgN/A
12:00 PM64 °FMild.6 mph81%30.27 "HgN/A
11:00 AM60 °FCool.3 mph88%30.28 "HgN/A
10:00 AM60 °FCool.No wind89%30.28 "HgN/A
9:00 AM59 °FCool.2 mph95%30.27 "HgN/A
8:00 AM58 °FRain. Overcast.2 mph96%30.25 "Hg9 mi
7:00 AM58 °FCool.2 mph95%30.24 "HgN/A
6:00 AM57 °FCool.2 mph94%30.22 "HgN/A
5:00 AM57 °FOvercast.2 mph97%30.22 "Hg9 mi
4:00 AM57 °FCool.1 mph98%30.21 "HgN/A
3:00 AM58 °FCool.2 mph95%30.19 "HgN/A
2:00 AM57 °FPassing clouds.3 mph98%30.19 "Hg9 mi
1:00 AM57 °FCool.1 mph98%30.19 "HgN/A
12:00 AM59 °FCool.2 mph96%30.19 "HgN/A
11:00 PM
Mon, Sep 26
59 °FRain. Overcast.2 mph98%30.19 "Hg5 mi
10:00 PM61 °FCool.5 mph92%30.18 "HgN/A
9:00 PM61 °FCool.2 mph89%30.16 "HgN/A
8:00 PM64 °FOvercast.2 mph77%30.13 "Hg9 mi
7:00 PM64 °FMild.1 mph78%30.11 "HgN/A
6:00 PM66 °FMild.7 mph71%30.10 "HgN/A
4:00 PM68 °FMild.6 mph69%30.08 "HgN/A
3:00 PM69 °FMild.5 mph70%30.08 "HgN/A
Weather by CustomWeather, © 2016

See weather overviewHow to use our weather pages